Probability
0 0 0 0 0 0 0 0 0 0 0 0 0 0 1 4 7 6 4 4 5 5 5 5 5 7 9 9 6 3 1 0 0 0 0 0 0 0 0 0 0 0 0 0
0 0 0 0 0 0 0 0 0 0 0 0 0 0 1 3 4 4 3 3 4 4 3 4 4 6 7 7 4 2 0 0 0 0 0 0 0 0 0 0 0 0 0 0
0 0 0 0 0 0 0 0 0 0 0 0 0 0 0 1 1 1 1 1 2 2 2 2 3 4 4 4 2 0 0 0 0 0 0 0 0 0 0 0 0 0 0 0
0 0 0 0 0 0 0 0 0 0 0 0 0 0 0 0 0 0 0 0 1 1 1 2 3 3 3 3 2 1 0 0 0 0 0 0 0 0 0 0 0 0 0 0
0 0 0 0 0 0 0 0 0 0 0 0 0 0 0 0 0 0 0 0 0 1 2 2 3 3 3 3 2 1 0 0 0 0 0 0 0 0 0 0 0 0 0 0
0 0 0 0 0 0 0 0 0 0 0 0 0 0 0 0 0 0 0 0 0 1 2 1 1 3 3 2 2 1 0 0 0 0 0 0 0 0 0 0 0 0 0 0
0 0 0 0 0 0 0 0 0 0 0 0 0 0 0 0 0 0 0 0 0 1 2 1 1 2 3 2 2 2 1 0 0 0 0 0 0 0 0 0 0 0 0 0
0 0 0 0 0 0 0 0 0 0 0 0 0 0 0 0 0 0 0 0 0 1 2 1 1 2 3 3 2 2 2 1 0 0 0 0 0 0 0 0 0 0 0 0
0 0 0 0 0 0 0 0 0 0 0 0 0 0 0 0 0 0 0 0 0 0 1 1 0 1 2 2 2 2 2 1 0 0 0 0 0 0 0 0 0 0 0 0
0 0 0 0 0 0 0 0 0 0 0 0 0 0 0 0 0 0 0 0 0 0 0 0 0 0 1 1 2 2 2 1 0 0 0 0 0 0 0 0 0 0 0 0
0 0 0 0 0 0 0 0 0 0 0 0 0 0 0 0 0 0 0 0 0 0 0 0 0 0 0 1 2 2 1 0 0 0 0 0 0 0 0 0 0 0 0 0
0 0 0 0 0 0 0 0 0 0 0 0 0 0 0 0 0 0 0 0 0 0 0 0 0 1 1 1 2 1 0 0 0 0 0 0 0 0 0 0 0 0 0 0
0 0 0 0 0 0 0 0 0 0 0 0 0 0 0 0 0 0 0 0 0 0 0 0 1 2 2 3 2 1 1 0 0 0 0 0 0 0 0 0 0 0 0 0
0 0 0 0 0 0 0 0 0 0 0 0 0 0 0 0 0 0 0 0 0 0 0 0 1 2 3 3 3 3 2 1 0 0 0 1 1 0 0 0 0 0 0 0
0 0 0 0 0 0 0 0 0 0 0 0 0 0 0 0 0 0 0 0 0 0 0 0 0 1 1 2 3 4 3 2 2 2 2 2 1 0 0 0 0 0 0 0
0 0 0 0 0 0 0 0 0 0 0 0 0 0 0 0 0 0 0 0 0 0 0 0 0 0 0 2 3 3 3 4 4 3 3 2 1 0 0 0 0 0 0 0
0 0 0 0 0 0 0 0 0 0 0 0 0 0 0 0 0 0 0 0 0 0 0 0 0 0 0 1 2 2 2 3 4 3 3 1 0 0 0 0 0 0 0 0
0 0 0 0 0 0 0 0 0 0 0 0 0 0 0 0 0 0 0 0 0 0 0 0 0 0 0 1 1 0 1 1 2 2 2 1 0 0 0 0 0 0 0 0
0 0 0 0 0 0 0 0 0 0 0 0 0 0 0 0 0 0 0 0 0 0 0 0 0 0 0 0 0 0 0 0 1 1 1 0 0 0 0 0 0 0 0 0
0 0 0 0 0 0 0 0 0 0 0 0 0 0 0 0 0 0 0 0 0 0 0 0 0 0 0 0 0 0 0 0 0 0 0 0 0 0 0 0 0 0 0 0
0 0 0 0 0 0 0 0 0 0 0 0 0 0 0 0 0 0 0 0 0 0 0 0 0 0 0 0 0 0 0 0 0 0 0 0 0 0 0 0 0 0 0 0
0 0 0 0 0 0 0 0 0 0 0 0 0 0 0 0 0 0 0 0 0 0 0 0 0 0 0 0 0 0 0 0 0 0 0 0 0 0 0 0 0 0 0 0
0 0 0 0 0 0 0 0 0 0 0 0 0 0 0 0 0 0 0 0 0 0 0 0 0 0 0 0 0 0 0 0 0 0 0 0 0 0 0 0 0 0 0 0
0 0 0 0 0 0 0 0 0 0 0 0 0 0 0 0 0 0 0 0 0 0 0 0 0 0 0 0 0 0 0 0 0 0 0 0 0 0 0 0 0 0 0 0
0 0 0 0 0 0 0 0 0 0 0 0 0 0 0 0 0 0 0 0 0 0 0 0 0 0 0 0 0 0 0 0 0 0 0 0 0 0 0 0 0 0 0 0
0 0 0 0 0 0 0 0 0 0 0 0 0 0 0 0 0 0 0 0 0 0 0 0 0 0 0 0 0 0 0 0 0 0 0 0 0 0 0 0 0 0 0 0
Wind_Speed
1 1 5 8 8 7 4 4 5 4 1 2 2 2 2 4 4 4 4 5 5 6 5 6 7 7 7 6 6 7 7 6 5 4 3 3 2 2 2 2 2 3 3 3
3 6 10 5 4 5 4 4 4 2 1 2 0 2 2 3 5 4 5 6 7 6 5 5 6 6 7 7 7 6 7 7 6 4 3 3 3 2 2 1 1 2 3 3
6 9 3 2 2 2 3 5 4 3 2 3 2 3 2 2 2 2 3 4 6 8 8 8 7 7 7 8 8 8 7 6 6 5 4 4 4 3 2 1 1 1 2 2
7 7 3 3 3 3 4 3 4 4 3 2 1 3 4 2 2 4 5 4 6 6 7 8 8 8 8 8 7 7 6 6 6 6 6 6 4 3 3 2 1 1 1 2
7 3 2 4 4 3 2 4 5 4 3 2 1 1 7 1 3 6 6 7 7 7 8 8 9 9 7 7 7 6 6 5 5 6 6 6 4 3 2 2 2 1 0 1
8 4 3 3 2 4 5 6 6 5 4 2 2 1 6 5 7 6 6 8 8 8 8 8 7 7 6 6 6 6 6 5 5 6 6 6 6 5 4 3 3 1 0 0
5 4 3 3 4 2 4 6 4 5 4 4 2 2 9 7 6 8 9 10 9 9 9 8 9 9 8 8 8 7 8 6 6 6 6 6 7 7 6 5 4 3 2 1
3 6 4 4 6 7 4 7 7 4 4 5 2 5 8 5 4 6 7 7 8 8 9 10 10 10 10 10 9 9 9 8 7 7 6 6 6 4 4 4 4 4 3 3
7 7 3 2 3 9 6 3 5 7 2 2 5 7 9 1 2 4 6 7 9 10 10 11 10 10 11 11 11 11 10 8 8 8 7 6 6 5 5 4 4 3 3 2
7 4 3 1 3 3 5 8 5 5 4 2 5 5 5 5 5 5 7 9 10 10 10 10 10 11 10 10 9 9 9 10 8 8 7 6 6 6 5 5 5 4 4 3
4 4 3 1 3 5 4 4 5 5 5 5 3 8 8 9 8 9 10 10 10 11 12 11 11 10 9 8 8 9 9 8 8 9 7 7 6 6 5 5 5 5 4 4
3 5 2 4 1 1 4 6 8 5 4 4 4 10 6 7 7 9 10 9 9 10 10 10 9 8 8 9 9 10 10 10 10 9 8 8 7 6 6 6 6 5 5 5
5 5 2 5 4 1 1 3 4 5 5 5 4 9 4 1 4 6 8 8 8 8 8 7 8 9 9 10 10 10 10 10 9 9 8 7 7 7 7 7 6 6 5 5
5 4 6 7 6 3 2 3 5 6 4 5 8 9 8 5 5 6 7 8 7 8 8 9 9 10 10 10 10 10 10 9 9 9 9 9 9 9 9 7 6 6 6 6
4 3 4 5 4 3 4 4 6 7 8 8 8 8 9 6 6 7 6 5 5 6 7 9 10 10 9 9 9 10 10 9 9 10 10 10 9 8 7 7 7 7 7 7
3 3 1 2 1 2 3 5 5 6 5 6 5 8 5 5 3 2 3 4 6 7 8 9 9 9 10 11 11 10 10 10 9 10 11 9 8 8 8 8 7 7 7 6
3 5 3 3 3 1 5 5 5 4 4 5 7 6 3 4 3 2 2 3 5 6 6 7 9 10 11 11 11 12 12 9 10 10 9 9 9 9 9 8 7 8 8 7
5 4 3 1 1 5 6 1 2 3 2 3 4 5 4 4 1 2 2 0 2 2 3 4 5 6 6 7 7 7 7 9 10 9 8 8 8 9 7 7 8 8 6 6
4 6 4 3 1 5 4 1 1 1 3 2 3 5 4 2 2 4 6 4 2 1 1 2 3 3 4 5 6 7 7 7 7 8 8 9 9 9 8 8 8 7 6 6
4 4 5 3 2 5 5 1 1 2 4 2 1 3 3 1 2 2 7 6 5 4 3 3 2 3 3 3 5 6 6 6 8 9 8 7 7 8 8 8 7 5 5 7
2 4 3 3 3 7 4 1 2 3 4 1 1 2 3 3 1 2 5 6 6 6 7 5 6 5 3 3 5 5 4 6 6 4 4 5 5 6 6 5 5 5 5 5
6 5 4 4 3 7 1 2 3 4 0 1 2 3 4 4 3 4 6 7 8 9 9 8 7 6 5 4 4 3 3 3 2 3 4 4 4 5 5 5 4 4 4 5
5 7 6 8 7 4 1 1 0 2 2 1 2 3 5 6 6 6 7 7 8 9 9 8 8 7 7 5 3 1 1 1 2 3 3 3 3 3 3 4 4 3 4 4
2 2 3 2 4 3 1 1 2 3 3 3 4 5 6 7 6 7 7 7 7 8 8 8 9 9 7 6 5 3 2 1 1 1 1 1 2 2 2 2 3 3 4 4
3 4 3 3 3 1 1 2 4 5 6 8 8 7 7 9 8 7 6 7 6 7 7 7 7 7 6 5 5 5 4 2 2 2 1 1 0 1 1 2 3 4 5 5
3 5 6 6 5 4 1 2 5 7 7 8 9 9 7 8 7 7 6 5 6 6 6 6 6 5 5 5 5 5 4 3 3 3 2 1 1 1 1 2 3 5 7 9
Wind_Direction
48 55 247 235 208 218 236 245 262 266 180 151 206 248 230 203 209 212 201 195 193 179 167 161 161 156 150 149 151 155 153 152 145 138 135 130 134 127 118 139 150 143 136 132
6 264 247 249 228 214 228 250 255 283 95 115 185 283 255 204 214 212 203 203 197 172 161 166 159 155 157 161 164 164 163 161 161 152 139 131 125 122 119 120 132 146 150 152
217 251 280 267 270 231 235 208 217 197 83 50 27 326 276 244 226 223 224 206 184 178 176 174 168 163 163 169 172 174 171 164 161 145 119 99 82 73 79 104 153 169 168 170
236 260 262 271 262 190 248 239 169 136 110 327 29 293 282 241 249 232 223 201 190 186 179 177 175 173 177 176 170 168 168 162 159 151 148 147 151 162 184 174 168 142 143 164
246 244 261 268 255 180 180 71 86 93 106 26 7 227 285 274 244 239 219 202 195 189 185 184 183 181 178 172 168 167 162 163 161 158 156 148 146 153 140 134 141 137 101 146
248 246 224 225 52 110 124 76 61 56 66 341 274 192 280 234 217 218 209 199 195 188 188 190 184 171 172 170 167 163 165 172 164 160 159 161 159 155 150 160 167 169 156 169
287 277 224 149 107 71 93 89 29 356 5 267 254 228 254 246 219 201 197 198 193 187 185 183 180 180 182 181 178 170 173 178 172 166 169 171 167 165 172 175 180 175 177 195
230 278 242 190 174 168 174 144 158 205 238 283 302 248 256 257 228 202 195 190 182 184 188 190 191 190 190 188 182 178 182 182 176 175 178 174 167 166 175 177 174 182 190 198
192 243 269 208 180 140 141 168 156 127 138 305 289 285 300 257 221 197 193 190 193 193 194 198 197 196 194 190 188 186 185 184 182 181 175 173 173 175 179 175 171 178 188 194
170 222 271 275 94 54 134 141 108 117 143 263 295 281 255 244 221 202 197 201 203 197 197 202 201 201 198 194 189 183 185 189 184 179 179 181 182 182 176 170 182 190 194 192
148 171 278 355 181 173 121 112 110 116 149 160 249 272 229 211 202 199 207 206 203 199 199 201 203 201 194 187 182 183 185 183 180 182 182 177 181 181 177 184 195 194 195 195
147 132 241 261 263 155 165 165 147 152 202 175 185 266 266 217 210 200 208 210 207 204 203 200 198 191 185 187 186 186 186 187 188 183 179 182 180 176 183 196 201 196 202 206
142 120 73 343 344 4 159 155 146 124 119 154 178 263 301 270 235 219 213 214 210 205 202 197 191 190 192 192 189 189 189 190 183 175 177 179 181 185 195 202 201 199 203 209
119 130 168 200 223 213 214 174 151 133 152 196 220 250 292 296 263 250 232 221 211 205 199 197 199 199 196 193 189 187 189 184 176 175 178 185 192 195 199 200 200 203 203 207
118 168 220 237 234 196 222 214 181 187 192 195 230 232 258 270 260 250 233 223 215 212 204 203 203 202 195 190 188 187 186 180 176 176 185 197 197 195 195 198 204 206 207 213
112 159 175 282 266 220 246 250 216 212 210 220 248 260 261 285 289 271 222 198 213 222 217 211 205 198 195 194 191 186 186 181 174 183 195 196 190 193 199 204 205 205 211 216
121 136 136 262 315 9 267 246 210 208 207 195 222 246 310 314 321 295 246 199 212 224 219 211 208 205 202 197 189 190 189 172 178 192 197 191 190 198 205 205 202 209 213 213
133 122 129 170 26 240 250 295 184 183 222 234 255 271 277 257 245 40 22 243 224 239 231 225 217 211 205 192 185 180 167 171 183 192 197 194 193 203 204 201 209 214 211 213
131 132 117 119 207 279 291 244 131 165 265 231 260 294 302 259 125 34 11 1 350 317 221 204 202 198 178 175 169 154 163 170 182 197 201 197 194 199 199 206 213 212 209 219
63 94 113 130 179 244 252 219 143 115 283 267 247 305 318 10 70 344 343 346 6 26 32 49 74 93 113 136 136 149 168 173 195 203 203 196 193 197 204 211 212 208 209 225
85 75 121 158 218 262 263 264 115 158 253 341 37 358 26 53 95 305 340 4 13 30 35 49 71 75 71 99 125 148 163 201 211 188 176 181 188 197 205 206 205 206 211 224
167 150 171 152 199 259 290 107 171 211 257 64 63 62 77 79 49 27 24 27 28 34 37 44 60 58 53 75 114 140 196 219 167 165 180 193 196 203 206 202 210 208 210 228
189 184 182 185 209 242 260 182 168 141 124 105 104 93 93 78 57 43 38 36 38 42 45 47 55 54 48 49 76 102 330 100 158 163 186 202 200 205 207 202 215 215 214 229
238 152 152 234 267 258 236 154 108 108 113 103 99 93 94 91 77 59 46 40 39 40 42 49 57 55 40 32 40 36 15 35 121 148 198 201 197 218 217 216 216 218 225 235
216 164 171 243 264 327 349 141 128 108 98 91 85 85 90 89 76 67 56 41 39 44 42 47 55 56 42 34 32 28 27 53 73 65 49 36 29 234 243 242 236 233 234 231
209 184 179 223 223 166 177 136 121 107 100 104 99 82 72 84 86 76 63 47 44 45 44 49 50 52 40 39 35 22 21 49 69 56 40 30 5 343 308 293 296 261 253 266